Location: Foligno
(42.9600°N, 12.7050°E)
Time: 06:07:28
(UTC+01:00)

ISS - Pass Details

Date: 21 January 2021
Orbit: 418 x 421 km, 51.6° (Epoch: 23 January)

Event Time Altitude Azimuth Distance (km) Brightness Sun altitude
Rises 19:28:22 0° 265° (W) 2,365 1.4 -25.5°
Reaches altitude 10° 19:30:38 10° 277° (W) 1,503 0.0 -25.9°
Enters shadow 19:32:25 23° 302° (WNW) 950 -1.5 -26.2°
